Location: Unspecified
(0.0000°N, 0.0000°E)
Time: 18:18:47
(UTC+00:00)

Vanguard 3 - All Passes

Search period start: 18 April 2019 00:00
Search period end: 28 April 2019 00:00
Orbit: 509 x 3262 km, 33.3° (Epoch: 17 April)

Date Brightness Start Highest point End Pass type
(mag) Time Alt. Az. Time Alt. Az. Time Alt. Az.
18 Apr - 01:10:59 10° SSW 01:27:20 44° SE 01:45:19 10° E visible
18 Apr - 03:25:11 10° SW 03:45:14 87° NW 04:02:17 10° NE visible
18 Apr - 05:44:58 10° W 06:01:55 37° NW 06:14:15 10° NNE daylight
18 Apr - 15:01:07 10° NW 15:04:42 50° NE 15:08:37 10° ESE daylight
18 Apr - 17:14:07 10° WSW 17:16:43 15° SSW 17:19:52 10° SSE daylight
18 Apr - 23:56:53 10° SSW 00:09:48 29° SSE 00:25:35 10° E visible
19 Apr - 02:09:14 10° SW 02:27:48 69° SE 02:46:29 10° ENE visible
19 Apr - 04:25:46 10° WSW 04:45:11 57° NW 05:00:33 10° NE visible
19 Apr - 06:50:36 10° WNW 07:01:59 20° NNW 07:10:43 10° N daylight
19 Apr - 13:48:30 10° N 13:51:09 17° NNE 13:53:36 10° ENE daylight
19 Apr - 15:59:16 10° W 16:02:35 31° SSW 16:06:37 10° SSE daylight
19 Apr - 22:43:53 10° S 22:52:23 18° SSE 23:02:59 10° ESE night (unlit)
20 Apr - 00:54:24 10° SW 01:10:23 48° SE 01:29:03 10° ENE visible
20 Apr - 03:08:28 10° WSW 03:28:00 80° NW 03:45:52 10° NE visible
20 Apr - 05:28:36 10° W 05:45:13 34° NW 05:57:58 10° NNE visible
20 Apr - 14:45:19 10° NW 14:49:07 81° NE 14:52:57 10° ESE daylight
20 Apr - 23:40:32 10° SSW 23:53:12 32° SE 00:09:29 10° E visible
21 Apr - 01:52:36 10° SW 02:10:36 76° SE 02:29:58 10° ENE visible
21 Apr - 04:09:14 10° WSW 04:28:08 51° NW 04:44:07 10° NE visible
21 Apr - 06:34:46 10° WNW 06:45:49 19° NNW 06:54:36 10° N daylight
21 Apr - 13:31:55 10° NNW 13:35:38 25° NNE 13:38:45 10° E daylight
21 Apr - 15:44:16 10° W 15:47:04 20° SSW 15:50:10 10° SSE daylight
21 Apr - 22:27:47 10° S 22:36:18 19° SSE 22:47:12 10° ESE night (unlit)
22 Apr - 00:37:56 10° SW 00:53:21 54° SE 01:12:34 10° ENE visible
22 Apr - 02:51:54 10° WSW 03:10:46 72° NW 03:29:16 10° NE visible
22 Apr - 05:12:26 10° W 05:28:34 31° NNW 05:41:37 10° NNE visible
22 Apr - 12:19:09 10° N 12:21:25 13° NNE 12:23:24 10° NE daylight
22 Apr - 14:29:35 10° WNW 14:33:34 63° SW 14:37:14 10° SE daylight
22 Apr - 23:24:14 10° SSW 23:36:33 35° SE 23:53:11 10° E visible
23 Apr - 01:36:08 10° SW 01:53:22 83° SE 02:13:17 10° NE visible
23 Apr - 03:52:52 10° WSW 04:11:08 46° NW 04:27:33 10° NE visible
23 Apr - 06:19:02 10° WNW 06:29:45 18° NNW 06:38:31 10° NNE daylight
23 Apr - 13:15:30 10° NW 13:20:06 39° NNE 13:23:39 10° ESE daylight
23 Apr - 15:29:38 10° WSW 15:31:31 13° SSW 15:33:26 10° S daylight
23 Apr - 22:11:41 10° S 22:20:07 20° SE 22:31:18 10° ESE night (unlit)
24 Apr - 00:21:35 10° SW 00:36:19 59° SE 00:55:53 10° ENE visible
24 Apr - 02:35:32 10° WSW 02:53:35 65° NW 03:12:31 10° NE visible
24 Apr - 04:56:27 10° W 05:12:01 28° NNW 05:25:12 10° NNE visible
24 Apr - 07:29:56 10° NNW 07:31:47 10° NNW 07:33:32 10° N daylight
24 Apr - 12:01:37 10° NNW 12:05:59 19° NNE 12:09:18 10° ENE daylight
24 Apr - 14:13:55 10° WNW 14:17:57 40° SW 14:21:26 10° SE daylight
24 Apr - 23:08:02 10° SSW 23:19:51 39° SE 23:36:42 10° E visible
25 Apr - 01:19:50 10° SW 01:36:10 89° NW 01:56:25 10° NE visible
25 Apr - 03:36:44 10° W 03:54:13 41° NNW 04:10:51 10° NNE visible
25 Apr - 06:03:21 10° NW 06:13:46 17° NNW 06:22:31 10° NNE daylight
25 Apr - 10:47:46 10° N 10:51:06 13° NNE 10:53:51 10° NE daylight
25 Apr - 12:59:09 10° NW 13:04:34 62° NNE 13:08:23 10° ESE daylight
25 Apr - 21:55:35 10° S 22:03:52 22° SE 22:15:16 10° E night (unlit)
26 Apr - 00:05:21 10° SW 00:19:17 66° SE 00:39:01 10° ENE visible
26 Apr - 02:19:21 10° WSW 02:36:29 59° NW 02:55:37 10° NE visible
26 Apr - 04:40:39 10° WNW 04:55:34 26° NNW 05:08:45 10° NNE visible
26 Apr - 07:12:27 10° NNW 07:16:16 11° N 07:19:43 10° N daylight
26 Apr - 09:33:40 10° N 09:35:21 10° N 09:36:55 10° NNE daylight
26 Apr - 11:44:31 10° NNW 11:50:32 29° NNE 11:54:36 10° E daylight
26 Apr - 13:58:19 10° W 14:02:18 28° SW 14:05:34 10° SSE daylight
26 Apr - 22:51:54 10° SSW 23:03:08 43° SE 23:20:02 10° ENE visible
27 Apr - 01:03:39 10° WSW 01:19:04 81° NW 01:39:23 10° NE visible
27 Apr - 03:20:48 10° W 03:37:25 37° NNW 03:54:04 10° NNE visible
27 Apr - 05:47:39 10° NW 05:57:53 16° NNW 06:06:38 10° NNE daylight
27 Apr - 08:16:48 10° N 08:18:36 10° N 08:20:16 10° N daylight
27 Apr - 10:29:43 10° NNW 10:35:41 19° NNE 10:39:58 10° ENE daylight
27 Apr - 12:42:49 10° NW 12:48:57 89° SW 12:52:59 10° SE daylight
27 Apr - 21:39:30 10° SSW 21:47:34 24° SE 21:59:06 10° E night (unlit)
